Year,Month,Day,Hour,Minute,Value (Times are PST for insolation in W/m^2)
2011,08,15,00,00,0.00
2011,08,15,00,01,0.00
2011,08,15,00,02,0.00
2011,08,15,00,03,0.00
2011,08,15,00,04,0.00
2011,08,15,00,05,0.00
2011,08,15,00,06,0.00
2011,08,15,00,07,0.00
2011,08,15,00,08,0.00
2011,08,15,00,09,0.00
2011,08,15,00,10,0.00
2011,08,15,00,11,0.00
2011,08,15,00,12,0.00
2011,08,15,00,13,0.00
2011,08,15,00,14,0.00
2011,08,15,00,15,0.00
2011,08,15,00,16,0.00
2011,08,15,00,17,0.00
2011,08,15,00,18,0.00
2011,08,15,00,19,0.00
2011,08,15,00,20,0.00
2011,08,15,00,21,0.00
2011,08,15,00,22,0.00
2011,08,15,00,23,0.00
2011,08,15,00,24,0.00
2011,08,15,00,25,0.00
2011,08,15,00,26,0.00
2011,08,15,00,27,0.00
2011,08,15,00,28,0.00
2011,08,15,00,29,0.00
2011,08,15,00,30,0.00
2011,08,15,00,31,0.00
2011,08,15,00,32,0.00
2011,08,15,00,33,0.00
2011,08,15,00,34,0.00
2011,08,15,00,35,0.00
2011,08,15,00,36,0.00
2011,08,15,00,37,0.00
2011,08,15,00,38,0.00
2011,08,15,00,39,0.00
2011,08,15,00,40,0.00
2011,08,15,00,41,0.00
2011,08,15,00,42,0.00
2011,08,15,00,43,0.00
2011,08,15,00,44,0.00
2011,08,15,00,45,0.00
2011,08,15,00,46,0.00
2011,08,15,00,47,0.00
2011,08,15,00,48,0.00
2011,08,15,00,49,0.00
2011,08,15,00,50,0.00
2011,08,15,00,51,0.00
2011,08,15,00,52,0.00
2011,08,15,00,53,0.00
2011,08,15,00,54,0.00
2011,08,15,00,55,0.00
2011,08,15,00,56,0.00
2011,08,15,00,57,0.00
2011,08,15,00,58,0.00
2011,08,15,00,59,0.00
2011,08,15,01,00,0.00
2011,08,15,01,01,0.00
2011,08,15,01,02,0.00
2011,08,15,01,03,0.00
2011,08,15,01,04,0.00
2011,08,15,01,05,0.00
2011,08,15,01,06,0.00
2011,08,15,01,07,0.00
2011,08,15,01,08,0.00
2011,08,15,01,09,0.00
2011,08,15,01,10,0.00
2011,08,15,01,11,0.00
2011,08,15,01,12,0.00
2011,08,15,01,13,0.00
2011,08,15,01,14,0.00
2011,08,15,01,15,0.00
2011,08,15,01,16,0.00
2011,08,15,01,17,0.00
2011,08,15,01,18,0.00
2011,08,15,01,19,0.00
2011,08,15,01,20,0.00
2011,08,15,01,21,0.00
2011,08,15,01,22,0.00
2011,08,15,01,23,0.00
2011,08,15,01,24,0.00
2011,08,15,01,25,0.00
2011,08,15,01,26,0.00
2011,08,15,01,27,0.00
2011,08,15,01,28,0.00
2011,08,15,01,29,0.00
2011,08,15,01,30,0.00
2011,08,15,01,31,0.00
2011,08,15,01,32,0.00
2011,08,15,01,33,0.00
2011,08,15,01,34,0.00
2011,08,15,01,35,0.00
2011,08,15,01,36,0.00
2011,08,15,01,37,0.00
2011,08,15,01,38,0.00
2011,08,15,01,39,0.00
2011,08,15,01,40,0.00
2011,08,15,01,41,0.00
2011,08,15,01,42,0.00
2011,08,15,01,43,0.00
2011,08,15,01,44,0.00
2011,08,15,01,45,0.00
2011,08,15,01,46,0.00
2011,08,15,01,47,0.00
2011,08,15,01,48,0.00
2011,08,15,01,49,0.00
2011,08,15,01,50,0.00
2011,08,15,01,51,0.00
2011,08,15,01,52,0.00
2011,08,15,01,53,0.00
2011,08,15,01,54,0.00
2011,08,15,01,55,0.00
2011,08,15,01,56,0.00
2011,08,15,01,57,0.00
2011,08,15,01,58,0.00
2011,08,15,01,59,0.00
2011,08,15,02,00,0.00
2011,08,15,02,01,0.00
2011,08,15,02,02,0.00
2011,08,15,02,03,0.00
2011,08,15,02,04,0.00
2011,08,15,02,05,0.00
2011,08,15,02,06,0.00
2011,08,15,02,07,0.00
2011,08,15,02,08,0.00
2011,08,15,02,09,0.00
2011,08,15,02,10,0.00
2011,08,15,02,11,0.00
2011,08,15,02,12,0.00
2011,08,15,02,13,0.00
2011,08,15,02,14,0.00
2011,08,15,02,15,0.00
2011,08,15,02,16,0.00
2011,08,15,02,17,0.00
2011,08,15,02,18,0.00
2011,08,15,02,19,0.00
2011,08,15,02,20,0.00
2011,08,15,02,21,0.00
2011,08,15,02,22,0.00
2011,08,15,02,23,0.00
2011,08,15,02,24,0.00
2011,08,15,02,25,0.00
2011,08,15,02,26,0.00
2011,08,15,02,27,0.00
2011,08,15,02,28,0.00
2011,08,15,02,29,0.00
2011,08,15,02,30,0.00
2011,08,15,02,31,0.00
2011,08,15,02,32,0.00
2011,08,15,02,33,0.00
2011,08,15,02,34,0.00
2011,08,15,02,35,0.00
2011,08,15,02,36,0.00
2011,08,15,02,37,0.00
2011,08,15,02,38,0.00
2011,08,15,02,39,0.00
2011,08,15,02,40,0.00
2011,08,15,02,41,0.00
2011,08,15,02,42,0.00
2011,08,15,02,43,0.00
2011,08,15,02,44,0.00
2011,08,15,02,45,0.00
2011,08,15,02,46,0.00
2011,08,15,02,47,0.00
2011,08,15,02,48,0.00
2011,08,15,02,49,0.00
2011,08,15,02,50,0.00
2011,08,15,02,51,0.00
2011,08,15,02,52,0.00
2011,08,15,02,53,0.00
2011,08,15,02,54,0.00
2011,08,15,02,55,0.00
2011,08,15,02,56,0.00
2011,08,15,02,57,0.00
2011,08,15,02,58,0.00
2011,08,15,02,59,0.00
2011,08,15,03,00,0.00
2011,08,15,03,01,0.00
2011,08,15,03,02,0.00
2011,08,15,03,03,0.00
2011,08,15,03,04,0.00
2011,08,15,03,05,0.00
2011,08,15,03,06,0.00
2011,08,15,03,07,0.00
2011,08,15,03,08,0.00
2011,08,15,03,09,0.00
2011,08,15,03,10,0.00
2011,08,15,03,11,0.00
2011,08,15,03,12,0.00
2011,08,15,03,13,0.00
2011,08,15,03,14,0.00
2011,08,15,03,15,0.00
2011,08,15,03,16,0.00
2011,08,15,03,17,0.00
2011,08,15,03,18,0.00
2011,08,15,03,19,0.00
2011,08,15,03,20,0.00
2011,08,15,03,21,0.00
2011,08,15,03,22,0.00
2011,08,15,03,23,0.00
2011,08,15,03,24,0.00
2011,08,15,03,25,0.00
2011,08,15,03,26,0.00
2011,08,15,03,27,0.00
2011,08,15,03,28,0.00
2011,08,15,03,29,0.00
2011,08,15,03,30,0.00
2011,08,15,03,31,0.00
2011,08,15,03,32,0.00
2011,08,15,03,33,0.00
2011,08,15,03,34,0.00
2011,08,15,03,35,0.00
2011,08,15,03,36,0.00
2011,08,15,03,37,0.00
2011,08,15,03,38,0.00
2011,08,15,03,39,0.00
2011,08,15,03,40,0.00
2011,08,15,03,41,0.00
2011,08,15,03,42,0.00
2011,08,15,03,43,0.00
2011,08,15,03,44,0.00
2011,08,15,03,45,0.00
2011,08,15,03,46,0.00
2011,08,15,03,47,0.00
2011,08,15,03,48,0.00
2011,08,15,03,49,0.00
2011,08,15,03,50,0.00
2011,08,15,03,51,0.00
2011,08,15,03,52,0.00
2011,08,15,03,53,0.00
2011,08,15,03,54,0.00
2011,08,15,03,55,0.00
2011,08,15,03,56,0.00
2011,08,15,03,57,0.00
2011,08,15,03,58,0.00
2011,08,15,03,59,0.00
2011,08,15,04,00,0.00
2011,08,15,04,01,0.00
2011,08,15,04,02,0.00
2011,08,15,04,03,0.00
2011,08,15,04,04,0.00
2011,08,15,04,05,0.00
2011,08,15,04,06,0.00
2011,08,15,04,07,0.00
2011,08,15,04,08,0.00
2011,08,15,04,09,0.00
2011,08,15,04,10,0.00
2011,08,15,04,11,0.00
2011,08,15,04,12,0.00
2011,08,15,04,13,0.00
2011,08,15,04,14,0.00
2011,08,15,04,15,0.00
2011,08,15,04,16,0.00
2011,08,15,04,17,0.00
2011,08,15,04,18,0.00
2011,08,15,04,19,0.00
2011,08,15,04,20,0.00
2011,08,15,04,21,0.00
2011,08,15,04,22,0.00
2011,08,15,04,23,0.00
2011,08,15,04,24,0.00
2011,08,15,04,25,0.00
2011,08,15,04,26,0.00
2011,08,15,04,27,0.00
2011,08,15,04,28,0.00
2011,08,15,04,29,0.00
2011,08,15,04,30,0.00
2011,08,15,04,31,0.00
2011,08,15,04,32,0.00
2011,08,15,04,33,0.00
2011,08,15,04,34,0.00
2011,08,15,04,35,0.00
2011,08,15,04,36,0.00
2011,08,15,04,37,0.00
2011,08,15,04,38,0.00
2011,08,15,04,39,0.00
2011,08,15,04,40,0.00
2011,08,15,04,41,0.00
2011,08,15,04,42,0.00
2011,08,15,04,43,0.00
2011,08,15,04,44,0.00
2011,08,15,04,45,0.00
2011,08,15,04,46,0.00
2011,08,15,04,47,0.00
2011,08,15,04,48,0.00
2011,08,15,04,49,0.00
2011,08,15,04,50,0.00
2011,08,15,04,51,0.00
2011,08,15,04,52,0.00
2011,08,15,04,53,0.00
2011,08,15,04,54,0.00
2011,08,15,04,55,0.00
2011,08,15,04,56,0.00
2011,08,15,04,57,0.00
2011,08,15,04,58,0.00
2011,08,15,04,59,0.00
2011,08,15,05,00,0.00
2011,08,15,05,01,0.00
2011,08,15,05,02,0.00
2011,08,15,05,03,0.00
2011,08,15,05,04,0.00
2011,08,15,05,05,0.00
2011,08,15,05,06,0.00
2011,08,15,05,07,0.00
2011,08,15,05,08,0.00
2011,08,15,05,09,0.00
2011,08,15,05,10,0.00
2011,08,15,05,11,0.00
2011,08,15,05,12,0.00
2011,08,15,05,13,0.00
2011,08,15,05,14,0.00
2011,08,15,05,15,0.00
2011,08,15,05,16,0.00
2011,08,15,05,17,0.00
2011,08,15,05,18,0.00
2011,08,15,05,19,0.00
2011,08,15,05,20,0.00
2011,08,15,05,21,0.00
2011,08,15,05,22,0.00
2011,08,15,05,23,0.00
2011,08,15,05,24,0.00
2011,08,15,05,25,0.00
2011,08,15,05,26,0.00
2011,08,15,05,27,0.00
2011,08,15,05,28,0.00
2011,08,15,05,29,0.00
2011,08,15,05,30,0.00
2011,08,15,05,31,0.00
2011,08,15,05,32,0.00
2011,08,15,05,33,0.00
2011,08,15,05,34,0.00
2011,08,15,05,35,0.00
2011,08,15,05,36,0.00
2011,08,15,05,37,0.00
2011,08,15,05,38,0.00
2011,08,15,05,39,0.00
2011,08,15,05,40,0.00
2011,08,15,05,41,0.00
2011,08,15,05,42,0.00
2011,08,15,05,43,0.00
2011,08,15,05,44,0.00
2011,08,15,05,45,0.00
2011,08,15,05,46,0.00
2011,08,15,05,47,0.00
2011,08,15,05,48,0.00
2011,08,15,05,49,0.00
2011,08,15,05,50,0.00
2011,08,15,05,51,0.00
2011,08,15,05,52,0.00
2011,08,15,05,53,0.00
2011,08,15,05,54,0.00
2011,08,15,05,55,0.00
2011,08,15,05,56,0.00
2011,08,15,05,57,0.00
2011,08,15,05,58,0.00
2011,08,15,05,59,0.00
2011,08,15,06,00,0.00
2011,08,15,06,01,0.00
2011,08,15,06,02,0.00
2011,08,15,06,03,0.00
2011,08,15,06,04,0.00
2011,08,15,06,05,0.00
2011,08,15,06,06,0.00
2011,08,15,06,07,0.00
2011,08,15,06,08,0.00
2011,08,15,06,09,0.00
2011,08,15,06,10,0.00
2011,08,15,06,11,0.00
2011,08,15,06,12,0.00
2011,08,15,06,13,0.00
2011,08,15,06,14,0.00
2011,08,15,06,15,0.00
2011,08,15,06,16,0.00
2011,08,15,06,17,0.00
2011,08,15,06,18,2.80
2011,08,15,06,19,5.00
2011,08,15,06,20,5.00
2011,08,15,06,21,5.30
2011,08,15,06,22,7.00
2011,08,15,06,23,7.00
2011,08,15,06,24,7.00
2011,08,15,06,25,8.50
2011,08,15,06,26,9.00
2011,08,15,06,27,9.30
2011,08,15,06,28,11.00
2011,08,15,06,29,11.50
2011,08,15,06,30,13.20
2011,08,15,06,31,15.50
2011,08,15,06,32,17.70
2011,08,15,06,33,18.10
2011,08,15,06,34,19.60
2011,08,15,06,35,21.90
2011,08,15,06,36,24.20
2011,08,15,06,37,25.80
2011,08,15,06,38,26.10
2011,08,15,06,39,28.40
2011,08,15,06,40,30.70
2011,08,15,06,41,32.50
2011,08,15,06,42,34.20
2011,08,15,06,43,38.20
2011,08,15,06,44,40.10
2011,08,15,06,45,44.00
2011,08,15,06,46,44.70
2011,08,15,06,47,46.50
2011,08,15,06,48,48.30
2011,08,15,06,49,50.60
2011,08,15,06,50,54.20
2011,08,15,06,51,58.50
2011,08,15,06,52,64.00
2011,08,15,06,53,78.40
2011,08,15,06,54,89.30
2011,08,15,06,55,91.00
2011,08,15,06,56,86.20
2011,08,15,06,57,87.10
2011,08,15,06,58,91.20
2011,08,15,06,59,87.80
2011,08,15,07,00,79.10
2011,08,15,07,01,77.00
2011,08,15,07,02,76.20
2011,08,15,07,03,77.50
2011,08,15,07,04,89.30
2011,08,15,07,05,120.50
2011,08,15,07,06,142.40
2011,08,15,07,07,148.50
2011,08,15,07,08,141.60
2011,08,15,07,09,142.00
2011,08,15,07,10,153.90
2011,08,15,07,11,160.00
2011,08,15,07,12,151.00
2011,08,15,07,13,156.90
2011,08,15,07,14,173.40
2011,08,15,07,15,182.50
2011,08,15,07,16,187.90
2011,08,15,07,17,191.80
2011,08,15,07,18,196.00
2011,08,15,07,19,199.80
2011,08,15,07,20,202.40
2011,08,15,07,21,204.00
2011,08,15,07,22,203.10
2011,08,15,07,23,203.30
2011,08,15,07,24,206.40
2011,08,15,07,25,206.70
2011,08,15,07,26,200.00
2011,08,15,07,27,180.40
2011,08,15,07,28,189.90
2011,08,15,07,29,209.20
2011,08,15,07,30,211.00
2011,08,15,07,31,200.40
2011,08,15,07,32,173.00
2011,08,15,07,33,156.40
2011,08,15,07,34,169.00
2011,08,15,07,35,173.90
2011,08,15,07,36,189.50
2011,08,15,07,37,218.00
2011,08,15,07,38,253.50
2011,08,15,07,39,273.00
2011,08,15,07,40,280.10
2011,08,15,07,41,283.70
2011,08,15,07,42,287.40
2011,08,15,07,43,294.80
2011,08,15,07,44,301.00
2011,08,15,07,45,297.20
2011,08,15,07,46,259.00
2011,08,15,07,47,232.00
2011,08,15,07,48,241.90
2011,08,15,07,49,317.20
2011,08,15,07,50,313.00
2011,08,15,07,51,296.40
2011,08,15,07,52,281.20
2011,08,15,07,53,274.50
2011,08,15,07,54,264.70
2011,08,15,07,55,298.40
2011,08,15,07,56,302.30
2011,08,15,07,57,319.80
2011,08,15,07,58,266.80
2011,08,15,07,59,257.80
2011,08,15,08,00,210.00
2011,08,15,08,01,225.00
2011,08,15,08,02,235.50
2011,08,15,08,03,244.10
2011,08,15,08,04,181.90
2011,08,15,08,05,150.30
2011,08,15,08,06,154.70
2011,08,15,08,07,194.80
2011,08,15,08,08,153.00
2011,08,15,08,09,153.00
2011,08,15,08,10,159.20
2011,08,15,08,11,162.00
2011,08,15,08,12,350.90
2011,08,15,08,13,356.50
2011,08,15,09,11,434.00
2011,08,15,09,12,435.10
2011,08,15,09,13,439.40
2011,08,15,09,14,442.20
2011,08,15,09,15,444.50
2011,08,15,09,16,445.90
2011,08,15,09,17,450.60
2011,08,15,09,18,454.90
2011,08,15,09,19,458.00
2011,08,15,09,20,459.00
2011,08,15,09,21,461.20
2011,08,15,09,22,467.70
2011,08,15,09,23,410.20
2011,08,15,09,24,174.60
2011,08,15,09,25,192.50
2011,08,15,09,26,218.00
2011,08,15,09,27,421.20
2011,08,15,09,28,487.40
2011,08,15,09,29,488.60
2011,08,15,09,30,485.30
2011,08,15,09,31,482.00
2011,08,15,09,32,484.00
2011,08,15,09,33,490.60
2011,08,15,09,34,494.20
2011,08,15,09,35,496.80
2011,08,15,09,36,494.60
2011,08,15,09,37,491.00
2011,08,15,09,38,494.80
2011,08,15,09,39,494.60
2011,08,15,09,40,495.70
2011,08,15,09,41,508.50
2011,08,15,09,42,509.50
2011,08,15,09,43,520.70
2011,08,15,09,44,524.80
2011,08,15,09,45,526.80
2011,08,15,09,46,485.20
2011,08,15,09,47,483.00
2011,08,15,09,48,520.30
2011,08,15,09,49,572.90
2011,08,15,09,50,578.00
2011,08,15,09,51,578.00
2011,08,15,09,52,578.00
2011,08,15,09,53,585.50
2011,08,15,09,54,608.70
2011,08,15,09,55,609.60
2011,08,15,09,56,597.20
2011,08,15,09,57,589.40
2011,08,15,09,58,585.40
2011,08,15,09,59,577.90
2011,08,15,10,00,580.90
2011,08,15,10,01,583.30
2011,08,15,10,02,582.50
2011,08,15,10,03,583.80
2011,08,15,10,04,584.80
2011,08,15,10,05,587.20
2011,08,15,10,06,597.20
2011,08,15,10,07,601.00
2011,08,15,10,08,601.00
2011,08,15,10,09,600.90
2011,08,15,10,10,599.00
2011,08,15,10,11,596.50
2011,08,15,10,12,593.10
2011,08,15,10,13,594.00
2011,08,15,10,14,602.80
2011,08,15,10,15,609.50
2011,08,15,10,16,608.40
2011,08,15,10,17,610.70
2011,08,15,10,18,609.80
2011,08,15,10,19,606.60
2011,08,15,10,20,605.20
2011,08,15,10,21,606.00
2011,08,15,10,22,607.00
2011,08,15,10,23,612.00
2011,08,15,10,24,618.70
2011,08,15,10,25,628.30
2011,08,15,10,26,631.00
2011,08,15,10,27,636.90
2011,08,15,10,28,642.90
2011,08,15,10,29,653.00
2011,08,15,10,30,664.00
2011,08,15,10,31,664.00
2011,08,15,10,32,689.50
2011,08,15,10,33,690.20
2011,08,15,10,34,686.00
2011,08,15,10,35,683.30
2011,08,15,10,36,675.80
2011,08,15,10,37,683.30
2011,08,15,10,38,687.00
2011,08,15,10,39,687.00
2011,08,15,10,40,698.20
2011,08,15,10,41,713.80
2011,08,15,10,42,706.10
2011,08,15,10,43,712.90
2011,08,15,10,44,715.00
2011,08,15,10,45,643.40
2011,08,15,10,46,381.50
2011,08,15,10,47,427.00
2011,08,15,10,48,427.00
2011,08,15,10,49,561.20
2011,08,15,10,50,606.00
2011,08,15,10,51,652.20
2011,08,15,10,52,800.00
2011,08,15,10,53,800.00
2011,08,15,10,54,800.00
2011,08,15,10,55,327.60
2011,08,15,10,56,252.30
2011,08,15,10,57,395.80
2011,08,15,10,58,821.40
2011,08,15,10,59,820.50
2011,08,15,11,00,824.00
2011,08,15,11,01,824.00
2011,08,15,11,02,807.50
2011,08,15,11,03,789.00
2011,08,15,11,04,789.00
2011,08,15,11,05,445.10
2011,08,15,11,06,192.90
2011,08,15,11,07,196.20
2011,08,15,11,08,248.30
2011,08,15,11,09,401.00
2011,08,15,11,10,835.00
2011,08,15,11,11,856.00
2011,08,15,11,12,484.00
2011,08,15,11,13,360.00
2011,08,15,11,14,360.00
2011,08,15,11,15,360.00
2011,08,15,11,16,360.00
2011,08,15,11,17,360.00
2011,08,15,11,18,360.00
2011,08,15,11,19,777.30
2011,08,15,11,20,792.90
2011,08,15,11,21,483.00
2011,08,15,11,22,483.00
2011,08,15,11,23,483.00
2011,08,15,11,24,424.80
2011,08,15,11,25,467.90
2011,08,15,11,26,494.90
2011,08,15,11,27,601.00
2011,08,15,11,28,601.00
2011,08,15,11,29,662.30
2011,08,15,11,30,698.00
2011,08,15,11,31,698.00
2011,08,15,11,32,698.00
2011,08,15,11,33,595.60
2011,08,15,11,34,420.00
2011,08,15,11,35,420.00
2011,08,15,11,36,429.50
2011,08,15,11,37,440.50
2011,08,15,11,38,441.00
2011,08,15,11,39,441.00
2011,08,15,11,40,441.00
2011,08,15,11,41,396.80
2011,08,15,11,42,373.00
2011,08,15,11,43,373.00
2011,08,15,11,44,525.10
2011,08,15,11,45,919.40
2011,08,15,11,46,872.00
2011,08,15,11,47,872.00
2011,08,15,11,48,909.40
2011,08,15,11,49,912.60
2011,08,15,11,50,918.00
2011,08,15,11,51,918.00
2011,08,15,11,52,918.00
2011,08,15,11,53,864.80
2011,08,15,11,54,842.00
2011,08,15,11,55,838.10
2011,08,15,11,56,817.00
2011,08,15,11,57,624.00
2011,08,15,11,58,388.00
2011,08,15,11,59,388.00
2011,08,15,12,00,409.30
2011,08,15,12,01,814.30
2011,08,15,12,02,816.00
2011,08,15,12,03,817.30
2011,08,15,12,04,819.00
2011,08,15,12,05,819.00
2011,08,15,12,06,825.90
2011,08,15,12,07,805.60
2011,08,15,12,08,798.40
2011,08,15,12,09,792.30
2011,08,15,12,10,787.20
2011,08,15,12,11,784.40
2011,08,15,12,12,773.90
2011,08,15,12,13,779.00
2011,08,15,12,14,772.60
2011,08,15,12,15,771.80
2011,08,15,12,16,777.60
2011,08,15,12,17,777.00
2011,08,15,12,18,780.20
2011,08,15,12,19,785.80
2011,08,15,12,20,791.80
2011,08,15,12,21,793.00
2011,08,15,12,22,795.10
2011,08,15,12,23,801.10
2011,08,15,12,24,802.00
2011,08,15,12,25,802.00
2011,08,15,12,26,802.40
2011,08,15,12,27,799.20
2011,08,15,12,28,791.30
2011,08,15,12,29,784.80
2011,08,15,12,30,786.20
2011,08,15,12,31,787.50
2011,08,15,12,32,786.80
2011,08,15,12,33,788.60
2011,08,15,12,34,786.80
2011,08,15,12,35,786.00
2011,08,15,12,36,784.30
2011,08,15,12,37,785.40
2011,08,15,12,38,785.70
2011,08,15,12,39,789.80
2011,08,15,12,40,789.50
2011,08,15,12,41,789.00
2011,08,15,12,42,789.00
2011,08,15,12,43,790.80
2011,08,15,12,44,794.10
2011,08,15,12,45,790.00
2011,08,15,12,46,788.00
2011,08,15,12,47,779.00
2011,08,15,12,48,796.00
2011,08,15,12,49,796.60
2011,08,15,12,50,798.00
2011,08,15,12,51,801.00
2011,08,15,12,52,803.00
2011,08,15,12,53,368.30
2011,08,15,12,54,420.60
2011,08,15,12,55,797.00
2011,08,15,12,56,793.90
2011,08,15,12,57,793.00
2011,08,15,12,58,793.00
2011,08,15,12,59,787.30
2011,08,15,13,00,796.20
2011,08,15,13,01,798.40
2011,08,15,13,02,796.00
2011,08,15,13,03,796.00
2011,08,15,13,04,796.00
2011,08,15,13,05,805.00
2011,08,15,13,06,810.00
2011,08,15,13,07,808.80
2011,08,15,13,08,807.00
2011,08,15,13,09,807.00
2011,08,15,13,10,803.00
2011,08,15,13,11,805.70
2011,08,15,13,12,794.30
2011,08,15,13,13,789.60
2011,08,15,13,14,784.20
2011,08,15,13,15,770.10
2011,08,15,13,16,761.70
2011,08,15,13,17,762.00
2011,08,15,13,18,803.60
2011,08,15,13,19,802.00
2011,08,15,13,20,795.40
2011,08,15,13,21,798.80
2011,08,15,13,22,774.20
2011,08,15,13,23,791.60
2011,08,15,13,24,802.00
2011,08,15,13,25,803.30
2011,08,15,13,26,803.80
2011,08,15,13,27,806.20
2011,08,15,13,28,805.50
2011,08,15,13,29,810.30
2011,08,15,13,30,811.30
2011,08,15,13,31,810.00
2011,08,15,13,32,808.20
2011,08,15,13,33,807.00
2011,08,15,13,34,808.70
2011,08,15,13,35,805.00
2011,08,15,13,36,805.00
2011,08,15,13,37,807.00
2011,08,15,13,38,805.20
2011,08,15,13,39,800.60
2011,08,15,13,40,798.10
2011,08,15,13,41,797.50
2011,08,15,13,42,794.80
2011,08,15,13,43,793.00
2011,08,15,13,44,793.00
2011,08,15,13,45,793.00
2011,08,15,13,46,793.20
2011,08,15,13,47,794.00
2011,08,15,13,48,791.80
2011,08,15,13,49,797.10
2011,08,15,13,50,801.40
2011,08,15,13,51,798.60
2011,08,15,13,52,791.80
2011,08,15,13,53,796.00
2011,08,15,13,54,796.00
2011,08,15,13,55,541.90
2011,08,15,13,56,334.00
2011,08,15,13,57,702.50
2011,08,15,13,58,761.00
2011,08,15,13,59,766.70
2011,08,15,14,00,782.80
2011,08,15,14,01,789.00
2011,08,15,14,02,794.70
2011,08,15,14,03,795.10
2011,08,15,14,04,795.20
2011,08,15,14,05,795.70
2011,08,15,14,06,789.20
2011,08,15,14,07,787.40
2011,08,15,14,08,788.80
2011,08,15,14,09,790.70
2011,08,15,14,10,791.40
2011,08,15,14,11,792.30
2011,08,15,14,12,786.50
2011,08,15,14,13,777.60
2011,08,15,14,14,767.90
2011,08,15,14,15,769.10
2011,08,15,14,16,765.20
2011,08,15,14,17,766.70
2011,08,15,14,18,770.00
2011,08,15,14,19,769.40
2011,08,15,14,20,768.00
2011,08,15,14,21,761.20
2011,08,15,14,22,757.00
2011,08,15,14,23,752.20
2011,08,15,14,24,749.00
2011,08,15,14,25,756.80
2011,08,15,14,26,738.90
2011,08,15,14,27,763.30
2011,08,15,14,28,763.90
2011,08,15,14,29,758.60
2011,08,15,14,30,753.00
2011,08,15,14,31,709.30
2011,08,15,14,32,692.60
2011,08,15,14,33,659.90
2011,08,15,14,34,689.90
2011,08,15,14,35,689.80
2011,08,15,14,36,696.30
2011,08,15,14,37,701.50
2011,08,15,14,38,703.00
2011,08,15,14,39,723.20
2011,08,15,14,40,728.90
2011,08,15,14,41,723.80
2011,08,15,14,42,715.00
2011,08,15,14,43,712.90
2011,08,15,14,44,714.70
2011,08,15,14,45,715.60
2011,08,15,14,46,708.20
2011,08,15,14,47,705.90
2011,08,15,14,48,707.00
2011,08,15,14,49,707.00
2011,08,15,14,50,699.40
2011,08,15,14,51,708.40
2011,08,15,14,52,709.10
2011,08,15,14,53,706.00
2011,08,15,14,54,708.20
2011,08,15,14,55,710.00
2011,08,15,14,56,707.50
2011,08,15,14,57,712.00
2011,08,15,14,58,710.20
2011,08,15,14,59,707.00
2011,08,15,15,00,704.40
2011,08,15,15,01,703.00
2011,08,15,15,02,699.50
2011,08,15,15,03,692.50
2011,08,15,15,04,689.00
2011,08,15,15,05,681.30
2011,08,15,15,06,674.40
2011,08,15,15,07,677.90
2011,08,15,15,08,686.70
2011,08,15,15,09,684.00
2011,08,15,15,10,682.10
2011,08,15,15,11,681.10
2011,08,15,15,12,682.00
2011,08,15,15,13,672.70
2011,08,15,15,14,677.80
2011,08,15,15,15,684.90
2011,08,15,15,16,680.70
2011,08,15,15,17,676.60
2011,08,15,15,18,676.10
2011,08,15,15,19,671.60
2011,08,15,15,20,674.70
2011,08,15,15,21,674.10
2011,08,15,15,22,665.10
2011,08,15,15,23,637.50
2011,08,15,15,24,646.20
2011,08,15,15,25,661.50
2011,08,15,15,26,659.10
2011,08,15,15,27,667.90
2011,08,15,15,28,659.50
2011,08,15,15,29,659.20
2011,08,15,15,30,662.50
2011,08,15,15,31,657.50
2011,08,15,15,32,653.30
2011,08,15,15,33,638.10
2011,08,15,15,34,644.00
2011,08,15,15,35,669.40
2011,08,15,15,36,673.40
2011,08,15,15,37,665.10
2011,08,15,15,38,668.40
2011,08,15,15,39,668.50
2011,08,15,15,40,666.00
2011,08,15,15,41,666.00
2011,08,15,15,42,667.60
2011,08,15,15,43,657.40
2011,08,15,15,44,661.50
2011,08,15,15,45,657.00
2011,08,15,15,46,653.20
2011,08,15,15,47,640.90
2011,08,15,15,48,637.70
2011,08,15,15,49,640.00
2011,08,15,15,50,638.30
2011,08,15,15,51,630.40
2011,08,15,15,52,623.40
2011,08,15,15,53,623.10
2011,08,15,15,54,625.60
2011,08,15,15,55,627.90
2011,08,15,15,56,626.80
2011,08,15,15,57,622.80
2011,08,15,15,58,621.60
2011,08,15,15,59,618.30
2011,08,15,16,00,617.00
2011,08,15,16,01,621.00
2011,08,15,16,02,621.00
2011,08,15,16,03,617.60
2011,08,15,16,04,613.00
2011,08,15,16,05,612.20
2011,08,15,16,06,612.90
2011,08,15,16,07,613.00
2011,08,15,16,08,612.00
2011,08,15,16,09,607.60
2011,08,15,16,10,603.80
2011,08,15,16,11,600.00
2011,08,15,16,12,598.30
2011,08,15,16,13,586.20
2011,08,15,16,14,592.60
2011,08,15,16,15,595.00
2011,08,15,16,16,589.60
2011,08,15,16,17,587.00
2011,08,15,16,18,584.00
2011,08,15,16,19,577.00
2011,08,15,16,20,573.00
2011,08,15,16,21,575.10
2011,08,15,16,22,577.00
2011,08,15,16,23,573.80
2011,08,15,16,24,574.90
2011,08,15,16,25,574.50
2011,08,15,16,26,571.90
2011,08,15,16,27,566.70
2011,08,15,16,28,564.00
2011,08,15,16,29,561.50
2011,08,15,16,30,560.60
2011,08,15,16,31,555.50
2011,08,15,16,32,553.30
2011,08,15,16,33,556.10
2011,08,15,16,34,550.20
2011,08,15,16,35,543.60
2011,08,15,16,36,545.00
2011,08,15,16,37,545.60
2011,08,15,16,38,544.50
2011,08,15,16,39,538.20
2011,08,15,16,40,534.50
2011,08,15,16,41,529.80
2011,08,15,16,42,529.30
2011,08,15,16,43,521.20
2011,08,15,16,44,525.40
2011,08,15,16,45,527.00
2011,08,15,16,46,527.00
2011,08,15,16,47,524.30
2011,08,15,16,48,524.00
2011,08,15,16,49,522.20
2011,08,15,16,50,519.00
2011,08,15,16,51,513.60
2011,08,15,16,52,507.00
2011,08,15,16,53,507.80
2011,08,15,16,54,507.20
2011,08,15,16,55,500.80
2011,08,15,16,56,494.00
2011,08,15,16,57,490.80
2011,08,15,16,58,491.20
2011,08,15,16,59,490.20
2011,08,15,17,00,488.80
2011,08,15,17,01,485.00
2011,08,15,17,02,483.50
2011,08,15,17,03,484.00
2011,08,15,17,04,483.30
2011,08,15,17,05,481.60
2011,08,15,17,06,478.00
2011,08,15,17,07,478.00
2011,08,15,17,08,477.00
2011,08,15,17,09,475.30
2011,08,15,17,10,471.80
2011,08,15,17,11,467.80
2011,08,15,17,12,465.50
2011,08,15,17,13,464.80
2011,08,15,17,14,463.70
2011,08,15,17,15,458.50
2011,08,15,17,16,454.50
2011,08,15,17,17,451.70
2011,08,15,17,18,449.50
2011,08,15,17,19,448.00
2011,08,15,17,20,445.10
2011,08,15,17,21,439.50
2011,08,15,17,22,432.90
2011,08,15,17,23,430.80
2011,08,15,17,24,423.40
2011,08,15,17,25,421.10
2011,08,15,17,26,424.20
2011,08,15,17,27,425.50
2011,08,15,17,28,425.00
2011,08,15,17,29,424.00
2011,08,15,17,30,424.00
2011,08,15,17,31,423.10
2011,08,15,17,32,420.80
2011,08,15,17,33,420.00
2011,08,15,17,34,419.80
2011,08,15,17,35,417.00
2011,08,15,17,36,416.30
2011,08,15,17,37,412.90
2011,08,15,17,38,410.40
2011,08,15,17,39,408.40
2011,08,15,17,40,405.50
2011,08,15,17,41,399.40
2011,08,15,17,42,401.70
2011,08,15,17,43,401.00
2011,08,15,17,44,397.70
2011,08,15,17,45,396.20
2011,08,15,17,46,393.70
2011,08,15,17,47,389.20
2011,08,15,17,48,386.20
2011,08,15,17,49,383.90
2011,08,15,17,50,381.00
2011,08,15,17,51,378.30
2011,08,15,17,52,374.20
2011,08,15,17,53,373.20
2011,08,15,17,54,370.20
2011,08,15,17,55,367.40
2011,08,15,17,56,361.80
2011,08,15,17,57,357.50
2011,08,15,17,58,354.80
2011,08,15,17,59,352.70
2011,08,15,18,00,352.40
2011,08,15,18,01,351.30
2011,08,15,18,02,347.20
2011,08,15,18,03,343.30
2011,08,15,18,04,342.20
2011,08,15,18,05,338.10
2011,08,15,18,06,335.10